Regional Weather Roundup
Issued by NWS

Home | Current Version | Previous Version | Graphics & Text | Print | Product List | Glossary On
Versions: 1 2 3 4 5 6 7 8 9 10 11 12 13 14 15 16 17 18 19 20 21 22 23 24 25 26 27 28 29 30 31 32 33 34 35 36 37 38 39 40 41 42 43 44 45 46 47 48 49 50
000
ASUS45 KSLC 282310
RWRUT

UTAH REGIONAL WEATHER ROUNDUP
NATIONAL WEATHER SERVICE SALT LAKE CITY UT
400 PM MST FRI NOV 28 2014

UTZ001>011-023>025-290000-

NORTHERN UTAH

CITY           SKY/WX    TMP DP  RH WIND       PRES   REMARKS
BRIGHAM CITY   MOCLDY    61  22  22 W5        29.84F
HILL AFB       MOCLDY    60  22  23 S16       29.85F
LOGAN          CLEAR     57  31  37 NE8       29.84F
OGDEN          MOCLDY    61  21  21 S15       29.83F
PROVO AIRPORT  PTCLDY    61  25  25 CALM      29.91F
SALT LAKE CITY MOCLDY    64  14  14 S17G28    29.83F
VERNAL         CLEAR     49  21  33 E3        29.98F
WENDOVER       SUNNY     55  21  26 NE6       29.82F
HEBER CITY     PTCLDY    59  12  15 SW15      29.93F
WEST JORDAN    CLEAR     61  28  29 S16G22    29.88F

$$

UTZ012>022-026-027-290000-

SOUTHERN/CENTRAL UTAH

CITY           SKY/WX    TMP DP  RH WIND       PRES   REMARKS
BLANDING       CLEAR     53  19  25 CALM      30.17F
BRYCE CANYON   SUNNY     55   7  14 SW16G23   30.12S
CEDAR CITY     SUNNY     61   8  12 SW15      30.01F
DELTA          MOSUNNY   64  13  14 S14       29.92S
MILFORD        SUNNY     64  12  13 SW22      29.95F
MOAB/CYNLANDS  CLEAR     51  23  33 NW3       30.01F
PRICE          PTCLDY    48  22  35 S5        30.04F
ST GEORGE      PTCLDY    63  19  19 SW3       29.99F
KANAB          SUNNY     64  12  13 S5        30.05F

$$

REGIONAL REPORTS     COLORADO/ARIZONA

CITY           SKY/WX    TMP DP  RH WIND       PRES   REMARKS
CRAIG, CO      MOCLDY    51  19  28 CALM      29.97F
GRAND JUNCTION PTCLDY    49  23  36 CALM      30.03F
RIFLE          PTCLDY    50  25  37 CALM      30.03F
MONTROSE       CLEAR     57  22  25 NW6       30.05F
CORTEZ         CLEAR     58  21  24 S6        30.11S
PAGE, AZ       SUNNY     56  19  23 NE3       30.03F
GRAND CANYON   SUNNY     64   5   9 SW16G25   30.13F
KINGMAN        SUNNY     73  14  10 SW15      30.00F
FLAGSTAFF      SUNNY     60  12  15 SW15      30.17F

$$

REGIONAL REPORTS    NEVADA/IDAHO/WYOMING

CITY           SKY/WX    TMP DP  RH WIND       PRES   REMARKS
LAS VEGAS, NV  MOSUNNY   66  20  17 S6        29.90F
ELY            SUNNY     60   9  13 S12       29.97F
ELKO           SUNNY     63   7  11 SW23G32   29.83F
POCATELLO, ID  MOCLDY    57  15  19 S21       29.76F
BURLEY         CLOUDY    57  23  26 SW12      29.74F
EVANSTON, WY   PTCLDY    47  20  34 SW13      29.93F
ROCK SPRINGS   PTCLDY    53   7  15 W21G30    29.92S

$$



USA.gov is the U.S. government's official web portal to all federal, state and local government web resources and services.